Regional Weather Roundup
Issued by NWS

Home | Current Version | Previous Version | Text Only | Print | Product List | Glossary On
Versions: 1 2 3 4 5 6 7 8 9 10 11 12 13 14 15 16 17 18 19 20 21 22 23 24 25 26 27 28 29 30 31 32 33 34 35 36 37 38 39 40 41 42 43 44 45 46 47 48 49 50
000
ASUS43 KMPX 240810
RWRMN
WEATHER ROUNDUP FOR MINNESOTA
NATIONAL WEATHER SERVICE TWIN CITIES/CHANHASSEN MN
300 AM CDT SUN MAY 24 2015


NOTE: "FAIR" INDICATES FEW OR NO CLOUDS BELOW 12,000 FEET WITH NO
SIGNIFICANT WEATHER AND/OR OBSTRUCTIONS TO VISIBILITY. N/A MEANS
CURRENT SKY AND/OR WEATHER CONDITIONS ARE NOT AVAILABLE.

MNZ060>063-068>070-240900-
   Twin Cities Metro

CITY           SKY/WX    TMP DP  RH WIND       PRES   REMARKS
TWIN CITIES    CLOUDY    60  51  72 NE5       30.11S
ST PAUL        CLOUDY    61  47  59 E3        30.12S
CRYSTAL        CLOUDY    63  48  58 E7        30.10S
BLAINE         CLOUDY    63  50  63 E7        30.11S
LAKEVILLE      CLOUDY    57  48  72 CALM      30.11S
EDEN PRAIRIE   CLOUDY    61  47  59 E8        30.09S
SOUTH ST PAUL  CLOUDY    62  46  55 NE3       30.11S
LAKE ELMO      CLOUDY    59  48  67 NE6       30.12S
$$
MNZ001>005-007-008-013>017-022>024-027-028-240900-
   Northwest Minnesota

CITY           SKY/WX    TMP DP  RH WIND       PRES   REMARKS
BEMIDJI        PTCLDY    46  41  84 CALM      30.12F
HALLOCK        PTCLDY    54  45  71 S6        30.09S
ROSEAU         CLEAR     55  46  71 SW5       30.11R
WARROAD        CLEAR     55  46  71 SW7       30.10F
THIEF RVR FALL PTCLDY    52  43  71 CALM      30.12R
CROOKSTON      CLEAR     52  45  76 CALM      30.11S
FOSSTON        PTCLDY    48  43  81 CALM      30.13R
DETROIT LAKES  PTCLDY    54  46  76 CALM      30.13S
MOORHEAD       CLEAR     55  46  71 CALM      30.11S
PARK RAPIDS    CLOUDY    54  46  74 N3        30.13R
MAHNOMEN       FAIR      52  46  80 SE6       30.12R
$$
MNZ006-009>011-018-025>026-240900-
   North Central Minnesota

CITY           SKY/WX    TMP DP  RH WIND       PRES   REMARKS
BAUDETTE       CLEAR     51  42  71 CALM      30.10S
FLAG ISLAND    CLEAR     61  45  55 W13       30.06S
INTL FALLS     CLEAR     49  42  77 SW5       30.11R
WASKISH        FAIR      48  46  93 CALM      30.12S
BIG FORK       CLEAR     45  43  93 CALM      30.13S
LONGVILLE      PTCLDY    45  45 100 CALM      30.13R
GRAND RAPIDS   PTCLDY    45  39  81 N3        30.13F
CRANE LAKE     CLEAR     43  39  87 CALM      30.14
ORR            CLEAR     48  43  81 CALM      30.11S
COOK           CLEAR     46  43  87 CALM      30.14S
WALKER         FAIR      44  42  95 CALM      30.14R
$$
MNZ012-019>021-037-240900-
   Northeast Minnesota

CITY           SKY/WX    TMP DP  RH WIND       PRES   REMARKS
DULUTH         PTCLDY    49  42  77 CALM      30.14F
ELY            CLEAR     50  45  81 CALM      30.13F
HIBBING        PTCLDY    40  38  93 CALM      30.13F
EVELETH        PTCLDY    43  41  93 CALM      30.14F
DULUTH HARBOR  PTCLDY    55  46  71 CALM      30.14S
TWO HARBORS    CLEAR     54  45  71 CALM      30.11F
GRAND MARAIS     N/A     46  39  76 VRB5      30.10R
G MARAIS ARPRT PTCLDY    55  39  54 W7        30.13S
$$
MNZ029>031-032-039>041-046>048-054>057-064-240900-
   West Central Minnesota

CITY           SKY/WX    TMP DP  RH WIND       PRES   REMARKS
FERGUS FALLS   MOCLDY    61  46  59 SE5       30.11S
WHEATON        CLOUDY    57  46  67 E8        30.10F
MORRIS         CLOUDY    57  48  72 E10       30.07F
ALEXANDRIA     CLOUDY    59  46  62 E7        30.12R
ELBOW LAKE     FAIR      59  47  64 E9        30.10F
WADENA         CLOUDY    55  48  76 CALM      30.12R
GLENWOOD       CLOUDY    59  46  63 E8        30.11R
APPLETON       MOCLDY    57  48  72 E6        30.06F
BENSON         CLOUDY    61  46  59 E5        30.08F
ORTONVILLE     CLOUDY    55  46  71 E6        30.06F
MADISON        CLOUDY    57  48  72 E7        30.06F
WILLMAR        MOCLDY    61  48  63 E6        30.10F
$$
MNZ033>034-036-042>043-049>051-058-059-240900-
   Central Minnesota

CITY           SKY/WX    TMP DP  RH WIND       PRES   REMARKS
ST CLOUD       CLOUDY    59  46  62 E5        30.12R
SAUK CENTRE    CLOUDY    58  47  66 E6        30.11S
PAYNESVILLE    CLOUDY    57  46  67 E6        30.11R
AITKIN         CLOUDY    52  46  82 CALM      30.12S
PINE RIVER     CLOUDY    52  46  82 CALM      30.17R
BRAINERD       MOCLDY    56  48  74 S3        30.14R
STAPLES        MOCLDY    55  48  76 CALM      30.13R
LONG PRAIRIE   CLOUDY    55  46  71 NE3       30.13R
LITTLE FALLS   CLOUDY    59  45  58 CALM      30.13R
LITCHFIELD     CLOUDY    61  52  72 E5        30.11R
BUFFALO        CLOUDY    59  49  69 E5        30.12R
MAPLE LAKE     CLOUDY    59  52  77 E3        30.12R
$$
MNZ037-044-045-052-053-240900-
   East Central Minnesota

CITY           SKY/WX    TMP DP  RH WIND       PRES   REMARKS
PRINCETON      CLOUDY    61  48  63 E3        30.12R
MORA           CLOUDY    55  45  67 CALM      30.14S
CAMBRIDGE      CLOUDY    63  46  55 E6        30.10F
RUSH CITY      CLOUDY    58  48  68 CALM      30.13S
MOOSE LAKE     CLOUDY    52  46  82 CALM      30.12F
HINCKLEY       CLOUDY    55  52  88 CALM      30.13F
CLOQUET        PTCLDY    46  41  81 CALM      30.14S
MCGREGOR       MOCLDY    50  45  81 CALM      30.14S
$$
MNZ071>073-080-081-089-090-097-098-240900-
   Southwest Minnesota

CITY           SKY/WX    TMP DP  RH WIND       PRES   REMARKS
MONTEVIDEO     CLOUDY    59  50  72 SE6       30.08F
GRANITE FALLS  CLOUDY    59  49  70 E3        30.09F
CANBY          CLOUDY    55  50  83 CALM      30.07F
MARSHALL       CLOUDY    59  48  67 SE7       30.06F
REDWOOD FALLS  CLOUDY    62  50  64 SE8       30.08S
OLIVIA         CLOUDY    59  46  63 SE8       30.08S
PIPESTONE      CLOUDY    59  55  88 SE1       30.06F
WINDOM         CLOUDY    61  54  77 CALM      30.08F
WORTHINGTON    CLOUDY    57  55  94 E3        30.07F
JACKSON        LGT RAIN  61  55  82 E6        30.08F
TRACY          LGT RAIN  61  54  75 SE5       30.08S
SLAYTON        CLOUDY    59  55  85 CALM      30.08F
$$
MNZ065>067-074>077-082>085-091>093-240900-
   South Central Minnesota

CITY           SKY/WX    TMP DP  RH WIND       PRES   REMARKS
MANKATO        CLOUDY    61  50  67 E5        30.09F
NEW ULM        CLOUDY    61  48  63 E3        30.09S
ST JAMES       CLOUDY    63  54  72 E5        30.08F
FAIRMONT       CLOUDY    61  48  63 E6        30.07F
GLENCOE        CLOUDY    61  50  66 NE5       30.09S
FARIBAULT      CLOUDY    59  52  77 NE3       30.10F
OWATONNA       CLOUDY    63  52  67 SE6       30.11R
WASECA         CLOUDY    59  50  72 E8        30.11S
ALBERT LEA     CLOUDY    63  52  67 SE3       30.11R
$$
MNZ078>079-086>088-094>096-240900-
   Southeast Minnesota

CITY           SKY/WX    TMP DP  RH WIND       PRES   REMARKS
ROCHESTER      CLOUDY    62  50  64 S7        30.13S
RED WING       CLOUDY    57  48  72 CALM      30.11R
STANTON        CLOUDY    60  50  70 CALM      30.10S
DODGE CENTER   CLOUDY    63  50  63 SE8       30.12R
WINONA         CLOUDY    59  54  82 CALM      30.14S
AUSTIN         CLOUDY    63  52  67 SE5       30.12R
PRESTON        CLOUDY    61  49  65 CALM      30.14S
$$
ABBREVIATIONS USED IN REMARKS
   TC - TEMPERATURES IN CELSIUS
  WCI - WIND CHILL INDEX
   HX - HEAT INDEX
  VSB - VISIBILITY
$$


USA.gov is the U.S. government's official web portal to all federal, state and local government web resources and services.